Location: Waco, TX
(31.5480°N, 97.1670°W)
Time: 02:37:57
(UTC-05:00)

ISS - Pass Details

Date: 10 May 2021
Orbit: 417 x 422 km, 51.6° (Epoch: 15 May)

Event Time Altitude Azimuth Distance (km) Brightness Sun altitude
Rises 21:52:54 0° 180° (S) 2,340 - -19.1°
Reaches altitude 10° 21:56:15 10° 143° (SE) 1,484 - -19.6°
Maximum altitude 21:57:18 11° 125° (SE) 1,418 - -19.8°
Drops below altitude 10° 21:58:21 10° 107° (ESE) 1,488 - -20.0°
Sets 22:01:43 0° 70° (ENE) 2,357 - -20.6°
